Regional Weather Roundup
Issued by NWS Charleston, WV

Home | Current Version | Previous Version | Text Only | Print | Product List | Glossary Off
Versions: 1 2 3 4 5 6 7 8 9 10 11 12 13 14 15 16 17 18 19 20 21 22 23 24 25 26 27

000
ASUS41 KRLX 140110
RWRRLX
West Virginia Regional Weather Roundup
National Weather Service Charleston WV
800 PM EST WED DEC 13 2017

Note: "fair" indicates few or no clouds below 12,000 feet with no
significant weather and/or obstructions to visibility.

WVZ003-140200-
Northern Panhandle of West Virginia

CITY           SKY/WX    TMP DP  RH WIND       PRES   REMARKS
WHEELING       LGT SNOW  22  17  81 S10       29.51R VSB 3/4
$$

WVZ009-140200-
Northwest West Virginia

CITY           SKY/WX    TMP DP  RH WIND       PRES   REMARKS
PARKERSBURG    CLOUDY    30  11  45 CALM      29.53F
$$

WVZ006-140200-
Western West Virginia

CITY           SKY/WX    TMP DP  RH WIND       PRES   REMARKS
HUNTINGTON     CLOUDY    40  11  30 SW9G18    29.54R
$$

WVZ015-140200-
West Central West Virginia

CITY           SKY/WX    TMP DP  RH WIND       PRES   REMARKS
CHARLESTON     CLOUDY    37  14  38 SW7       29.53S
$$

WVZ022-031-140200-
North Central West Virginia

CITY           SKY/WX    TMP DP  RH WIND       PRES   REMARKS
CLARKSBURG     CLOUDY    28  12  51 VRB5      29.56R
MORGANTOWN     CLOUDY    24  17  74 VRB3      29.52S
$$

WVZ025-035-042-045-140200-
Southern West Virginia

CITY           SKY/WX    TMP DP  RH WIND       PRES   REMARKS
BECKLEY        CLEAR     34  12  40 SW13      29.54R
LOGAN          CLOUDY    39  10  30 SW16G24   29.55S
BLUEFIELD      CLEAR     35  10  35 W15G28    29.58R
LEWISBURG      MOCLDY    29  16  58 CALM      29.58R
$$

WVZ047-140200-
Northern Mountains of West Virginia

CITY           SKY/WX    TMP DP  RH WIND       PRES   REMARKS
ELKINS         CLOUDY    33  16  49 S9        29.50R
$$

WVZ052-140200-
Eastern Panhandle of West Virginia

CITY           SKY/WX    TMP DP  RH WIND       PRES   REMARKS
MARTINSBURG    FLURRIES  27  22  81 E3        29.62F
PETERSBURG     CLOUDY    34  17  50 S6        29.55F
$$




USA.gov is the U.S. government's official web portal to all federal, state and local government web resources and services.